LiveATC.Net - Listen to live air traffic control over the Internet!


ICAO: CYMX  IATA: YMX   Airport: Montreal-Mirabel International Airport
City: Montreal   State/Province: Quebec
Country: Canada   Continent: North America
CYMX METAR Weather: CYMX 220200Z 28006KT 230V320 25SM FEW240 M19/M25 A3028 RMK CI1 SLP264
CYMX Flight Activity (FlightAware)

CYMX Ground/Radio
Feed Status: UP   Listeners: 0
Listen in your browser - HTML5 player (in browser, HTML5)
Click here to listen with your own player (launches your MP3 player)
CYMX Ground/Radio Audio Archives
FacilityFrequency
Mirabel Ground121.800
Mirabel Radio119.100

NOTICE

Unauthorized use prohibited. See LiveATC.net Terms of Service


Find LiveATC Audio Streams


Airport/ARTCC Code

Frequency Search
(e.g., 124.400, 128.75)
Site-wide search
 


Browse LiveATC Feeds
Top 50 LiveATC Feeds
LiveATC Feed Map
Bad Weather Areas

LiveATC FAQ
Offer LiveATC feed
Contact LiveATC.net
Press Inquiries

LiveATC on iPhone
LiveATC on Android

Windows Phone
Windows 8/10

LiveATC Mobile
(Mobile browser)

ATC Audio Archives
Interesting Recordings

LiveATC Forums


Home Page
About LiveATC.net
Make a Donation
Terms of Use
Privacy Policy

Canadian Air Freqs

AIRMETs/SIGMETs

FAA Airport Status
Nat'l Airspace Status
Arrival Demand Charts


Server Software By:
Icecast.org
Liquidsoap